Time,TemperatureF,DewpointF,PressureIn,WindDirection,WindDirectionDegrees,WindSpeedMPH,WindSpeedGustMPH,Humidity,HourlyPrecipIn,Conditions,Clouds,dailyrainin,SoftwareType,DateUTC
2013-02-12 00:00:00,37.0,30.5,30.15,WSW,238,6.0,-999.0,77,0.00,,,0.00,Wunderground v.1.15,2013-02-12 06:00:00,
2013-02-12 00:05:00,36.7,30.5,30.15,West,279,5.0,-999.0,78,0.00,,,0.00,Wunderground v.1.15,2013-02-12 06:05:00,
2013-02-12 00:10:00,36.3,31.0,30.15,SW,233,6.0,-999.0,81,0.00,,,0.00,Wunderground v.1.15,2013-02-12 06:10:00,
2013-02-12 00:15:00,36.0,30.4,30.15,WSW,245,8.0,-999.0,80,0.00,,,0.00,Wunderground v.1.15,2013-02-12 06:15:00,
2013-02-12 00:20:00,35.6,30.3,30.16,West,279,7.0,-999.0,81,0.00,,,0.00,Wunderground v.1.15,2013-02-12 06:20:00,
2013-02-12 00:25:00,35.3,30.4,30.15,WSW,248,7.0,-999.0,82,0.00,,,0.00,Wunderground v.1.15,2013-02-12 06:25:00,
2013-02-12 00:29:00,35.0,30.1,30.15,WSW,240,8.0,-999.0,82,0.00,,,0.00,Wunderground v.1.15,2013-02-12 06:29:00,
2013-02-12 00:34:00,34.9,30.0,30.15,WSW,238,10.0,-999.0,82,0.00,,,0.00,Wunderground v.1.15,2013-02-12 06:34:00,
2013-02-12 00:39:00,34.9,30.3,30.15,SW,228,10.0,-999.0,83,0.00,,,0.00,Wunderground v.1.15,2013-02-12 06:39:00,
2013-02-12 00:44:00,34.8,30.2,30.15,SW,228,11.0,-999.0,83,0.00,,,0.00,Wunderground v.1.15,2013-02-12 06:44:00,
2013-02-12 00:49:00,34.9,30.3,30.15,SW,230,11.0,-999.0,83,0.00,,,0.00,Wunderground v.1.15,2013-02-12 06:49:00,
2013-02-12 00:54:00,35.0,30.4,30.15,SW,225,12.0,-999.0,83,0.00,,,0.00,Wunderground v.1.15,2013-02-12 06:54:00,
2013-02-12 00:59:00,35.0,30.4,30.15,West,279,12.0,-999.0,83,0.00,,,0.00,Wunderground v.1.15,2013-02-12 06:59:00,
2013-02-12 01:04:00,34.9,30.3,30.14,SW,226,13.0,-999.0,83,0.00,,,0.00,Wunderground v.1.15,2013-02-12 07:04:00,
2013-02-12 01:09:00,34.7,30.1,30.16,West,279,12.0,-999.0,83,0.00,,,0.00,Wunderground v.1.15,2013-02-12 07:09:00,
2013-02-12 01:14:00,34.7,30.4,30.14,SW,232,12.0,-999.0,84,0.00,,,0.00,Wunderground v.1.15,2013-02-12 07:14:00,
2013-02-12 01:19:00,34.8,30.2,30.14,SW,236,12.0,-999.0,83,0.00,,,0.00,Wunderground v.1.15,2013-02-12 07:19:00,
2013-02-12 01:24:00,34.6,30.0,30.14,SW,234,12.0,-999.0,83,0.00,,,0.00,Wunderground v.1.15,2013-02-12 07:24:00,
2013-02-12 01:29:00,34.4,30.1,30.14,WSW,244,12.0,-999.0,84,0.00,,,0.00,Wunderground v.1.15,2013-02-12 07:29:00,
2013-02-12 01:34:00,34.2,29.9,30.14,West,279,11.0,-999.0,84,0.00,,,0.00,Wunderground v.1.15,2013-02-12 07:34:00,
2013-02-12 01:39:00,33.9,29.6,30.14,WSW,246,11.0,-999.0,84,0.00,,,0.00,Wunderground v.1.15,2013-02-12 07:39:00,
2013-02-12 01:44:00,33.7,29.7,30.15,WSW,246,11.0,-999.0,85,0.00,,,0.00,Wunderground v.1.15,2013-02-12 07:44:00,
2013-02-12 01:49:00,33.6,29.9,30.14,WSW,240,11.0,-999.0,86,0.00,,,0.00,Wunderground v.1.15,2013-02-12 07:49:00,
2013-02-12 01:54:00,33.5,29.8,30.14,WSW,238,11.0,-999.0,86,0.00,,,0.00,Wunderground v.1.15,2013-02-12 07:54:00,
2013-02-12 01:59:00,33.3,29.8,30.14,West,279,10.0,-999.0,87,0.00,,,0.00,Wunderground v.1.15,2013-02-12 07:59:00,
2013-02-12 02:04:00,33.2,29.8,30.15,West,279,11.0,-999.0,87,0.00,,,0.00,Wunderground v.1.15,2013-02-12 08:04:00,
2013-02-12 02:09:00,33.1,29.9,30.14,West,279,11.0,-999.0,88,0.00,,,0.00,Wunderground v.1.15,2013-02-12 08:09:00,
2013-02-12 02:14:00,33.0,29.8,30.14,WSW,240,11.0,-999.0,88,0.00,,,0.00,Wunderground v.1.15,2013-02-12 08:14:00,
2013-02-12 02:19:00,32.9,29.5,30.14,West,260,12.0,-999.0,87,0.00,,,0.00,Wunderground v.1.15,2013-02-12 08:19:00,
2013-02-12 02:24:00,32.7,29.3,30.14,West,263,10.0,-999.0,87,0.00,,,0.00,Wunderground v.1.15,2013-02-12 08:24:00,
2013-02-12 02:29:00,32.5,29.3,30.16,West,259,9.0,-999.0,88,0.00,,,0.00,Wunderground v.1.15,2013-02-12 08:29:00,
2013-02-12 02:34:00,32.4,29.2,30.14,West,279,9.0,-999.0,88,0.00,,,0.00,Wunderground v.1.15,2013-02-12 08:34:00,
2013-02-12 02:39:00,32.3,29.1,30.15,West,259,10.0,-999.0,88,0.00,,,0.00,Wunderground v.1.15,2013-02-12 08:39:00,
2013-02-12 02:44:00,32.1,28.9,30.15,WSW,252,6.0,-999.0,88,0.00,,,0.00,Wunderground v.1.15,2013-02-12 08:44:00,
2013-02-12 02:49:00,32.1,29.2,30.15,WSW,246,9.0,-999.0,89,0.00,,,0.00,Wunderground v.1.15,2013-02-12 08:49:00,
2013-02-12 02:54:00,32.0,29.1,30.16,West,279,9.0,-999.0,89,0.00,,,0.00,Wunderground v.1.15,2013-02-12 08:54:00,
2013-02-12 02:59:00,31.9,29.3,30.15,West,279,8.0,-999.0,90,0.00,,,0.00,Wunderground v.1.15,2013-02-12 08:59:00,
2013-02-12 03:04:00,31.9,29.3,30.15,West,279,6.0,-999.0,90,0.00,,,0.00,Wunderground v.1.15,2013-02-12 09:04:00,
2013-02-12 03:09:00,31.8,29.2,30.15,WNW,288,7.0,-999.0,90,0.00,,,0.00,Wunderground v.1.15,2013-02-12 09:09:00,
2013-02-12 03:14:00,31.7,29.1,30.14,WNW,292,6.0,-999.0,90,0.00,,,0.00,Wunderground v.1.15,2013-02-12 09:14:00,
2013-02-12 03:19:00,31.7,29.1,30.14,WNW,292,5.0,-999.0,90,0.00,,,0.00,Wunderground v.1.15,2013-02-12 09:19:00,
2013-02-12 03:24:00,31.7,29.1,30.14,NW,305,5.0,-999.0,90,0.00,,,0.00,Wunderground v.1.15,2013-02-12 09:24:00,
2013-02-12 03:29:00,31.6,29.0,30.15,NW,316,5.0,-999.0,90,0.00,,,0.00,Wunderground v.1.15,2013-02-12 09:29:00,
2013-02-12 03:34:00,31.4,28.8,30.14,NW,316,5.0,-999.0,90,0.00,,,0.00,Wunderground v.1.15,2013-02-12 09:34:00,
2013-02-12 03:39:00,31.3,28.7,30.15,NW,309,5.0,-999.0,90,0.00,,,0.00,Wunderground v.1.15,2013-02-12 09:39:00,
2013-02-12 03:44:00,31.3,29.0,30.15,NW,305,3.0,-999.0,91,0.00,,,0.00,Wunderground v.1.15,2013-02-12 09:44:00,
2013-02-12 03:49:00,31.2,28.6,30.15,NW,305,0.0,-999.0,90,0.00,,,0.00,Wunderground v.1.15,2013-02-12 09:49:00,
2013-02-12 03:54:00,31.1,28.8,30.15,NW,305,0.0,-999.0,91,0.00,,,0.00,Wunderground v.1.15,2013-02-12 09:54:00,
2013-02-12 03:59:00,31.2,28.9,30.15,NW,305,0.0,-999.0,91,0.00,,,0.00,Wunderground v.1.15,2013-02-12 09:59:00,
2013-02-12 04:04:00,31.3,29.0,30.16,NW,305,0.0,-999.0,91,0.00,,,0.00,Wunderground v.1.15,2013-02-12 10:04:00,
2013-02-12 04:09:00,31.2,28.6,30.15,NW,305,3.0,-999.0,90,0.00,,,0.00,Wunderground v.1.15,2013-02-12 10:09:00,
2013-02-12 04:14:00,31.1,28.5,30.15,NW,311,4.0,-999.0,90,0.00,,,0.00,Wunderground v.1.15,2013-02-12 10:14:00,
2013-02-12 04:19:00,31.0,28.7,30.15,NW,320,5.0,-999.0,91,0.00,,,0.00,Wunderground v.1.15,2013-02-12 10:19:00,
2013-02-12 04:24:00,30.8,28.5,30.15,NNW,333,5.0,-999.0,91,0.00,,,0.00,Wunderground v.1.15,2013-02-12 10:24:00,
2013-02-12 04:29:00,30.7,28.1,30.15,NNW,338,4.0,-999.0,90,0.00,,,0.00,Wunderground v.1.15,2013-02-12 10:29:00,
2013-02-12 04:34:00,30.6,28.3,30.16,NNW,337,4.0,-999.0,91,0.00,,,0.00,Wunderground v.1.15,2013-02-12 10:34:00,
2013-02-12 04:39:00,30.5,28.2,30.17,NNW,338,4.0,-999.0,91,0.00,,,0.00,Wunderground v.1.15,2013-02-12 10:39:00,
2013-02-12 04:44:00,30.5,28.2,30.15,North,3,6.0,-999.0,91,0.00,,,0.00,Wunderground v.1.15,2013-02-12 10:44:00,
2013-02-12 04:49:00,30.4,28.1,30.15,North,5,6.0,-999.0,91,0.00,,,0.00,Wunderground v.1.15,2013-02-12 10:49:00,
2013-02-12 04:54:00,30.3,28.0,30.15,West,279,6.0,-999.0,91,0.00,,,0.00,Wunderground v.1.15,2013-02-12 10:54:00,
2013-02-12 04:59:00,30.1,27.8,30.15,North,7,7.0,-999.0,91,0.00,,,0.00,Wunderground v.1.15,2013-02-12 10:59:00,
2013-02-12 05:04:00,30.1,27.8,30.15,West,279,7.0,-999.0,91,0.00,,,0.00,Wunderground v.1.15,2013-02-12 11:04:00,
2013-02-12 05:09:00,30.0,27.7,30.16,NNE,13,7.0,-999.0,91,0.00,,,0.00,Wunderground v.1.15,2013-02-12 11:09:00,
2013-02-12 05:14:00,29.9,27.6,30.15,North,9,7.0,-999.0,91,0.00,,,0.00,Wunderground v.1.15,2013-02-12 11:14:00,
2013-02-12 05:19:00,29.9,27.6,30.14,North,7,7.0,-999.0,91,0.00,,,0.00,Wunderground v.1.15,2013-02-12 11:19:00,
2013-02-12 05:24:00,29.8,27.8,30.14,NNE,17,7.0,-999.0,92,0.00,,,0.00,Wunderground v.1.15,2013-02-12 11:24:00,
2013-02-12 05:29:00,29.8,27.8,30.14,NNE,12,6.0,-999.0,92,0.00,,,0.00,Wunderground v.1.15,2013-02-12 11:29:00,
2013-02-12 05:34:00,29.9,27.9,30.14,NNE,12,7.0,-999.0,92,0.00,,,0.00,Wunderground v.1.15,2013-02-12 11:34:00,
2013-02-12 05:39:00,29.9,27.9,30.14,NNE,17,8.0,-999.0,92,0.00,,,0.00,Wunderground v.1.15,2013-02-12 11:39:00,
2013-02-12 05:44:00,29.9,27.9,30.14,NNE,17,9.0,-999.0,92,0.00,,,0.00,Wunderground v.1.15,2013-02-12 11:44:00,
2013-02-12 05:49:00,29.8,27.8,30.14,NNE,17,10.0,-999.0,92,0.00,,,0.00,Wunderground v.1.15,2013-02-12 11:49:00,
2013-02-12 05:54:00,29.8,27.8,30.14,NNE,16,11.0,-999.0,92,0.00,,,0.00,Wunderground v.1.15,2013-02-12 11:54:00,
2013-02-12 05:59:00,29.9,28.1,30.14,NNE,18,9.0,-999.0,93,0.00,,,0.00,Wunderground v.1.15,2013-02-12 11:59:00,
2013-02-12 06:04:00,29.9,28.1,30.14,NNE,17,9.0,-999.0,93,0.00,,,0.00,Wunderground v.1.15,2013-02-12 12:04:00,
2013-02-12 06:09:00,30.0,28.2,30.14,NNE,24,9.0,-999.0,93,0.00,,,0.00,Wunderground v.1.15,2013-02-12 12:09:00,
2013-02-12 06:14:00,29.9,27.9,30.14,NNE,28,10.0,-999.0,92,0.00,,,0.00,Wunderground v.1.15,2013-02-12 12:14:00,
2013-02-12 06:19:00,29.9,28.1,30.14,NNE,25,10.0,-999.0,93,0.00,,,0.00,Wunderground v.1.15,2013-02-12 12:19:00,
2013-02-12 06:24:00,29.9,28.1,30.16,NNE,24,10.0,-999.0,93,0.00,,,0.00,Wunderground v.1.15,2013-02-12 12:24:00,
2013-02-12 06:29:00,29.9,28.1,30.14,NNE,31,10.0,-999.0,93,0.00,,,0.00,Wunderground v.1.15,2013-02-12 12:29:00,
2013-02-12 06:34:00,29.9,28.1,30.14,NE,34,11.0,-999.0,93,0.00,,,0.00,Wunderground v.1.15,2013-02-12 12:34:00,
2013-02-12 06:39:00,29.9,28.1,30.14,NNE,31,12.0,-999.0,93,0.00,,,0.00,Wunderground v.1.15,2013-02-12 12:39:00,
2013-02-12 06:44:00,29.8,28.0,30.14,West,279,11.0,-999.0,93,0.00,,,0.00,Wunderground v.1.15,2013-02-12 12:44:00,
2013-02-12 06:49:00,29.9,28.1,30.13,NE,34,12.0,-999.0,93,0.00,,,0.00,Wunderground v.1.15,2013-02-12 12:49:00,
2013-02-12 06:54:00,29.9,28.1,30.13,NE,37,12.0,-999.0,93,0.00,,,0.00,Wunderground v.1.15,2013-02-12 12:54:00,
2013-02-12 06:59:00,29.9,28.1,30.13,NNE,33,13.0,-999.0,93,0.00,,,0.00,Wunderground v.1.15,2013-02-12 12:59:00,
2013-02-12 07:04:00,30.1,28.3,30.13,NNE,32,14.0,-999.0,93,0.00,,,0.00,Wunderground v.1.15,2013-02-12 13:04:00,
2013-02-12 07:09:00,30.4,28.9,30.13,NNE,33,14.0,-999.0,94,0.00,,,0.00,Wunderground v.1.15,2013-02-12 13:09:00,
2013-02-12 07:14:00,30.9,29.4,30.13,NE,37,14.0,-999.0,94,0.00,,,0.00,Wunderground v.1.15,2013-02-12 13:14:00,
2013-02-12 07:19:00,31.4,29.9,30.12,NNE,31,14.0,-999.0,94,0.00,,,0.00,Wunderground v.1.15,2013-02-12 13:19:00,
2013-02-12 07:24:00,31.7,30.2,30.13,NE,34,14.0,-999.0,94,0.00,,,0.00,Wunderground v.1.15,2013-02-12 13:24:00,
2013-02-12 07:29:00,32.1,30.6,30.13,NE,37,14.0,-999.0,94,0.00,,,0.00,Wunderground v.1.15,2013-02-12 13:29:00,
2013-02-12 07:34:00,32.6,31.3,30.14,NE,37,15.0,-999.0,95,0.00,,,0.00,Wunderground v.1.15,2013-02-12 13:34:00,
2013-02-12 07:39:00,33.3,32.0,30.13,NE,46,15.0,-999.0,95,0.00,,,0.00,Wunderground v.1.15,2013-02-12 13:39:00,
2013-02-12 07:44:00,34.0,32.7,30.13,West,279,17.0,-999.0,95,0.00,,,0.00,Wunderground v.1.15,2013-02-12 13:44:00,
2013-02-12 07:48:00,34.5,33.2,30.12,West,279,17.0,-999.0,95,0.00,,,0.00,Wunderground v.1.15,2013-02-12 13:48:00,
2013-02-12 07:53:00,35.1,33.5,30.12,NE,46,17.0,-999.0,94,0.00,,,0.00,Wunderground v.1.15,2013-02-12 13:53:00,
2013-02-12 07:58:00,35.9,33.3,30.12,NE,35,15.0,-999.0,90,0.00,,,0.00,Wunderground v.1.15,2013-02-12 13:58:00,
2013-02-12 08:03:00,36.8,33.3,30.12,NE,40,14.0,-999.0,87,0.00,,,0.00,Wunderground v.1.15,2013-02-12 14:03:00,
2013-02-12 08:08:00,37.5,33.1,30.14,NE,35,15.0,-999.0,84,0.00,,,0.00,Wunderground v.1.15,2013-02-12 14:08:00,
2013-02-12 08:13:00,38.2,32.9,30.12,NE,42,14.0,-999.0,81,0.00,,,0.00,Wunderground v.1.15,2013-02-12 14:13:00,
2013-02-12 08:18:00,38.6,33.3,30.13,West,279,13.0,-999.0,81,0.00,,,0.00,Wunderground v.1.15,2013-02-12 14:18:00,
2013-02-12 08:23:00,38.9,32.6,30.13,NE,52,11.0,-999.0,78,0.00,,,0.00,Wunderground v.1.15,2013-02-12 14:23:00,
2013-02-12 08:28:00,39.4,32.5,30.13,NNE,30,10.0,-999.0,76,0.00,,,0.00,Wunderground v.1.15,2013-02-12 14:28:00,
2013-02-12 08:33:00,39.8,33.2,30.13,West,279,11.0,-999.0,77,0.00,,,0.00,Wunderground v.1.15,2013-02-12 14:33:00,
2013-02-12 08:38:00,40.2,32.9,30.14,NNE,26,13.0,-999.0,75,0.00,,,0.00,Wunderground v.1.15,2013-02-12 14:38:00,
2013-02-12 08:43:00,40.5,33.2,30.14,North,3,10.0,-999.0,75,0.00,,,0.00,Wunderground v.1.15,2013-02-12 14:43:00,
2013-02-12 08:48:00,40.9,33.2,30.14,NNE,15,10.0,-999.0,74,0.00,,,0.00,Wunderground v.1.15,2013-02-12 14:48:00,
2013-02-12 08:53:00,41.5,33.5,30.15,NE,38,9.0,-999.0,73,0.00,,,0.00,Wunderground v.1.15,2013-02-12 14:53:00,
2013-02-12 08:58:00,42.0,32.9,30.15,West,279,6.0,-999.0,70,0.00,,,0.00,Wunderground v.1.15,2013-02-12 14:58:00,
2013-02-12 09:03:00,42.8,33.3,30.17,NE,35,4.0,-999.0,69,0.00,,,0.00,Wunderground v.1.15,2013-02-12 15:03:00,
2013-02-12 09:08:00,43.5,32.9,30.16,NNE,26,3.0,-999.0,66,0.00,,,0.00,Wunderground v.1.15,2013-02-12 15:08:00,
2013-02-12 09:13:00,44.1,32.7,30.15,NNE,30,6.0,-999.0,64,0.00,,,0.00,Wunderground v.1.15,2013-02-12 15:13:00,
2013-02-12 09:18:00,44.7,32.5,30.14,NE,40,10.0,-999.0,62,0.00,,,0.00,Wunderground v.1.15,2013-02-12 15:18:00,
2013-02-12 09:23:00,45.4,33.1,30.13,West,279,10.0,-999.0,62,0.00,,,0.00,Wunderground v.1.15,2013-02-12 15:23:00,
2013-02-12 09:28:00,46.0,33.3,30.13,NE,49,10.0,-999.0,61,0.00,,,0.00,Wunderground v.1.15,2013-02-12 15:28:00,
2013-02-12 09:33:00,46.4,32.8,30.12,NE,34,7.0,-999.0,59,0.00,,,0.00,Wunderground v.1.15,2013-02-12 15:33:00,
2013-02-12 09:38:00,46.7,32.7,30.12,NNE,26,6.0,-999.0,58,0.00,,,0.00,Wunderground v.1.15,2013-02-12 15:38:00,
2013-02-12 09:43:00,47.2,33.2,30.11,NE,54,8.0,-999.0,58,0.00,,,0.00,Wunderground v.1.15,2013-02-12 15:43:00,
2013-02-12 09:48:00,47.6,32.7,30.11,NE,48,10.0,-999.0,56,0.00,,,0.00,Wunderground v.1.15,2013-02-12 15:48:00,
2013-02-12 09:53:00,47.7,33.2,30.12,NE,55,9.0,-999.0,57,0.00,,,0.00,Wunderground v.1.15,2013-02-12 15:53:00,
2013-02-12 09:58:00,48.1,33.1,30.14,West,279,13.0,-999.0,56,0.00,,,0.00,Wunderground v.1.15,2013-02-12 15:58:00,
2013-02-12 10:03:00,48.3,32.4,30.11,NE,36,11.0,-999.0,54,0.00,,,0.00,Wunderground v.1.15,2013-02-12 16:03:00,
2013-02-12 10:08:00,48.2,32.3,30.10,NE,42,10.0,-999.0,54,0.00,,,0.00,Wunderground v.1.15,2013-02-12 16:08:00,
2013-02-12 10:13:00,48.2,32.3,30.10,NE,37,12.0,-999.0,54,0.00,,,0.00,Wunderground v.1.15,2013-02-12 16:13:00,
2013-02-12 10:18:00,48.1,31.8,30.11,NNE,23,10.0,-999.0,53,0.00,,,0.00,Wunderground v.1.15,2013-02-12 16:18:00,
2013-02-12 10:23:00,47.9,32.9,30.09,West,279,11.0,-999.0,56,0.00,,,0.00,Wunderground v.1.15,2013-02-12 16:23:00,
2013-02-12 10:28:00,47.8,32.4,30.10,NNE,17,3.0,-999.0,55,0.00,,,0.00,Wunderground v.1.15,2013-02-12 16:28:00,
2013-02-12 10:33:00,47.8,32.4,30.10,West,279,9.0,-999.0,55,0.00,,,0.00,Wunderground v.1.15,2013-02-12 16:33:00,
2013-02-12 10:38:00,47.9,31.6,30.11,NNE,22,10.0,-999.0,53,0.00,,,0.00,Wunderground v.1.15,2013-02-12 16:38:00,
2013-02-12 10:43:00,47.8,32.9,30.11,NE,52,8.0,-999.0,56,0.00,,,0.00,Wunderground v.1.15,2013-02-12 16:43:00,
2013-02-12 10:48:00,47.9,32.5,30.10,NE,37,6.0,-999.0,55,0.00,,,0.00,Wunderground v.1.15,2013-02-12 16:48:00,
2013-02-12 10:53:00,48.0,31.7,30.10,NE,36,7.0,-999.0,53,0.00,,,0.00,Wunderground v.1.15,2013-02-12 16:53:00,
2013-02-12 10:58:00,47.9,31.6,30.12,West,279,6.0,-999.0,53,0.00,,,0.00,Wunderground v.1.15,2013-02-12 16:58:00,
2013-02-12 11:03:00,48.0,31.7,30.11,West,279,5.0,-999.0,53,0.00,,,0.00,Wunderground v.1.15,2013-02-12 17:03:00,
2013-02-12 11:08:00,48.1,31.8,30.13,NE,36,6.0,-999.0,53,0.00,,,0.00,Wunderground v.1.15,2013-02-12 17:08:00,
2013-02-12 11:13:00,48.3,31.5,30.11,West,279,8.0,-999.0,52,0.00,,,0.00,Wunderground v.1.15,2013-02-12 17:13:00,
2013-02-12 11:18:00,48.4,32.0,30.11,West,279,11.0,-999.0,53,0.00,,,0.00,Wunderground v.1.15,2013-02-12 17:18:00,
2013-02-12 11:23:00,48.6,31.8,30.11,ENE,63,11.0,-999.0,52,0.00,,,0.00,Wunderground v.1.15,2013-02-12 17:23:00,
2013-02-12 11:28:00,48.8,31.9,30.11,ENE,61,9.0,-999.0,52,0.00,,,0.00,Wunderground v.1.15,2013-02-12 17:28:00,
2013-02-12 11:33:00,48.9,31.5,30.12,NE,51,7.0,-999.0,51,0.00,,,0.00,Wunderground v.1.15,2013-02-12 17:33:00,
2013-02-12 11:38:00,49.1,31.7,30.13,ENE,63,5.0,-999.0,51,0.00,,,0.00,Wunderground v.1.15,2013-02-12 17:38:00,
2013-02-12 11:43:00,49.2,31.3,30.12,West,279,6.0,-999.0,50,0.00,,,0.00,Wunderground v.1.15,2013-02-12 17:43:00,
2013-02-12 11:48:00,49.4,31.5,30.11,NE,50,10.0,-999.0,50,0.00,,,0.00,Wunderground v.1.15,2013-02-12 17:48:00,
2013-02-12 11:53:00,49.5,31.1,30.12,ENE,67,10.0,-999.0,49,0.00,,,0.00,Wunderground v.1.15,2013-02-12 17:53:00,
2013-02-12 11:58:00,49.5,31.1,30.10,West,279,10.0,-999.0,49,0.00,,,0.00,Wunderground v.1.15,2013-02-12 17:58:00,
2013-02-12 12:03:00,49.4,31.5,30.10,ENE,63,6.0,-999.0,50,0.00,,,0.00,Wunderground v.1.15,2013-02-12 18:03:00,
2013-02-12 12:08:00,49.5,32.1,30.11,ENE,78,2.0,-999.0,51,0.00,,,0.00,Wunderground v.1.15,2013-02-12 18:08:00,
2013-02-12 12:13:00,49.7,31.8,30.12,West,279,5.0,-999.0,50,0.00,,,0.00,Wunderground v.1.15,2013-02-12 18:13:00,
2013-02-12 12:18:00,49.7,31.8,30.09,NE,42,6.0,-999.0,50,0.00,,,0.00,Wunderground v.1.15,2013-02-12 18:18:00,
2013-02-12 12:23:00,49.8,31.9,30.08,NE,39,6.0,-999.0,50,0.00,,,0.00,Wunderground v.1.15,2013-02-12 18:23:00,
2013-02-12 12:28:00,49.9,32.5,30.09,West,279,7.0,-999.0,51,0.00,,,0.00,Wunderground v.1.15,2013-02-12 18:28:00,
2013-02-12 12:33:00,49.9,32.0,30.09,West,279,7.0,-999.0,50,0.00,,,0.00,Wunderground v.1.15,2013-02-12 18:33:00,
2013-02-12 12:38:00,49.9,31.0,30.08,NE,39,4.0,-999.0,48,0.00,,,0.00,Wunderground v.1.15,2013-02-12 18:38:00,
2013-02-12 12:43:00,49.8,30.4,30.08,ENE,57,7.0,-999.0,47,0.00,,,0.00,Wunderground v.1.15,2013-02-12 18:43:00,
2013-02-12 12:48:00,49.7,31.3,30.08,NE,51,7.0,-999.0,49,0.00,,,0.00,Wunderground v.1.15,2013-02-12 18:48:00,
2013-02-12 12:53:00,49.5,30.6,30.09,ENE,62,8.0,-999.0,48,0.00,,,0.00,Wunderground v.1.15,2013-02-12 18:53:00,
2013-02-12 12:58:00,49.3,29.9,30.08,West,279,6.0,-999.0,47,0.00,,,0.00,Wunderground v.1.15,2013-02-12 18:58:00,
2013-02-12 13:03:00,49.2,30.3,30.08,West,279,9.0,-999.0,48,0.00,,,0.00,Wunderground v.1.15,2013-02-12 19:03:00,
2013-02-12 13:08:00,49.3,30.4,30.07,NE,38,9.0,-999.0,48,0.00,,,0.00,Wunderground v.1.15,2013-02-12 19:08:00,
2013-02-12 13:13:00,49.3,30.9,30.07,ENE,61,10.0,-999.0,49,0.00,,,0.00,Wunderground v.1.15,2013-02-12 19:13:00,
2013-02-12 13:18:00,49.2,30.3,30.08,NE,51,6.0,-999.0,48,0.00,,,0.00,Wunderground v.1.15,2013-02-12 19:18:00,
2013-02-12 13:23:00,49.2,30.8,30.06,West,279,5.0,-999.0,49,0.00,,,0.00,Wunderground v.1.15,2013-02-12 19:23:00,
2013-02-12 13:28:00,49.2,31.3,30.06,NNE,19,5.0,-999.0,50,0.00,,,0.00,Wunderground v.1.15,2013-02-12 19:28:00,
2013-02-12 13:33:00,49.2,31.8,30.07,NNE,22,7.0,-999.0,51,0.00,,,0.00,Wunderground v.1.15,2013-02-12 19:33:00,
2013-02-12 13:38:00,49.1,31.2,30.08,West,279,5.0,-999.0,50,0.00,,,0.00,Wunderground v.1.15,2013-02-12 19:38:00,
2013-02-12 13:43:00,49.0,31.6,30.07,NNE,26,5.0,-999.0,51,0.00,,,0.00,Wunderground v.1.15,2013-02-12 19:43:00,
2013-02-12 13:48:00,49.0,31.6,30.05,NNE,32,5.0,-999.0,51,0.00,,,0.00,Wunderground v.1.15,2013-02-12 19:48:00,
2013-02-12 13:53:00,49.0,31.2,30.06,NE,49,6.0,-999.0,50,0.00,,,0.00,Wunderground v.1.15,2013-02-12 19:53:00,
2013-02-12 13:58:00,48.9,31.5,30.04,West,279,6.0,-999.0,51,0.00,,,0.00,Wunderground v.1.15,2013-02-12 19:58:00,
2013-02-12 14:03:00,48.9,32.0,30.03,NE,54,10.0,-999.0,52,0.00,,,0.00,Wunderground v.1.15,2013-02-12 20:03:00,
2013-02-12 14:08:00,49.0,31.2,30.03,NNE,33,10.0,-999.0,50,0.00,,,0.00,Wunderground v.1.15,2013-02-12 20:08:00,
2013-02-12 14:13:00,48.9,31.1,30.03,West,279,10.0,-999.0,50,0.00,,,0.00,Wunderground v.1.15,2013-02-12 20:13:00,
2013-02-12 14:18:00,48.8,31.0,30.01,NNE,32,5.0,-999.0,50,0.00,,,0.00,Wunderground v.1.15,2013-02-12 20:18:00,
2013-02-12 14:23:00,48.9,31.5,30.01,West,279,4.0,-999.0,51,0.00,,,0.00,Wunderground v.1.15,2013-02-12 20:23:00,
2013-02-12 14:28:00,49.0,32.1,30.00,West,279,11.0,-999.0,52,0.00,,,0.00,Wunderground v.1.15,2013-02-12 20:28:00,
2013-02-12 14:33:00,49.1,31.2,30.02,NE,55,5.0,-999.0,50,0.00,,,0.00,Wunderground v.1.15,2013-02-12 20:33:00,
2013-02-12 14:38:00,49.1,30.7,30.00,NE,42,10.0,-999.0,49,0.00,,,0.00,Wunderground v.1.15,2013-02-12 20:38:00,
2013-02-12 14:43:00,49.1,30.7,30.00,West,279,11.0,-999.0,49,0.00,,,0.00,Wunderground v.1.15,2013-02-12 20:43:00,
2013-02-12 14:48:00,49.1,31.2,30.00,NE,45,11.0,-999.0,50,0.00,,,0.00,Wunderground v.1.15,2013-02-12 20:48:00,
2013-02-12 14:53:00,49.1,31.2,30.01,NE,35,7.0,-999.0,50,0.00,,,0.00,Wunderground v.1.15,2013-02-12 20:53:00,
2013-02-12 14:57:00,49.2,31.3,30.00,ENE,57,7.0,-999.0,50,0.00,,,0.00,Wunderground v.1.15,2013-02-12 20:57:00,
2013-02-12 15:02:00,49.3,31.4,29.99,NE,51,10.0,-999.0,50,0.00,,,0.00,Wunderground v.1.15,2013-02-12 21:02:00,
2013-02-12 15:07:00,49.3,31.4,29.99,NE,42,11.0,-999.0,50,0.00,,,0.00,Wunderground v.1.15,2013-02-12 21:07:00,
2013-02-12 15:12:00,49.3,31.4,30.01,NE,56,11.0,-999.0,50,0.00,,,0.00,Wunderground v.1.15,2013-02-12 21:12:00,
2013-02-12 15:17:00,49.2,31.8,29.99,NE,37,7.0,-999.0,51,0.00,,,0.00,Wunderground v.1.15,2013-02-12 21:17:00,
2013-02-12 15:22:00,49.2,31.8,29.98,NE,47,5.0,-999.0,51,0.00,,,0.00,Wunderground v.1.15,2013-02-12 21:22:00,
2013-02-12 15:27:00,49.3,31.9,29.98,NNE,24,10.0,-999.0,51,0.00,,,0.00,Wunderground v.1.15,2013-02-12 21:27:00,
2013-02-12 15:32:00,49.3,31.9,29.99,NE,45,6.0,-999.0,51,0.00,,,0.00,Wunderground v.1.15,2013-02-12 21:32:00,
2013-02-12 15:37:00,49.2,31.3,29.98,NNE,30,7.0,-999.0,50,0.00,,,0.00,Wunderground v.1.15,2013-02-12 21:37:00,
2013-02-12 15:42:00,49.1,31.7,29.98,NE,47,11.0,-999.0,51,0.00,,,0.00,Wunderground v.1.15,2013-02-12 21:42:00,
2013-02-12 15:47:00,48.9,31.1,29.99,NE,46,9.0,-999.0,50,0.00,,,0.00,Wunderground v.1.15,2013-02-12 21:47:00,
2013-02-12 15:52:00,48.8,31.0,29.99,West,279,4.0,-999.0,50,0.00,,,0.00,Wunderground v.1.15,2013-02-12 21:52:00,
2013-02-12 15:57:00,48.7,31.4,29.98,NE,36,5.0,-999.0,51,0.00,,,0.00,Wunderground v.1.15,2013-02-12 21:57:00,
2013-02-12 16:02:00,48.6,31.8,29.97,NNE,33,6.0,-999.0,52,0.00,,,0.00,Wunderground v.1.15,2013-02-12 22:02:00,
2013-02-12 16:07:00,48.5,31.7,29.98,NNE,17,6.0,-999.0,52,0.00,,,0.00,Wunderground v.1.15,2013-02-12 22:07:00,
2013-02-12 16:12:00,48.5,32.1,29.98,West,279,8.0,-999.0,53,0.00,,,0.00,Wunderground v.1.15,2013-02-12 22:12:00,
2013-02-12 16:17:00,48.4,32.5,29.99,NNE,21,5.0,-999.0,54,0.00,,,0.00,Wunderground v.1.15,2013-02-12 22:17:00,
2013-02-12 16:22:00,48.3,31.9,29.98,North,9,6.0,-999.0,53,0.00,,,0.00,Wunderground v.1.15,2013-02-12 22:22:00,
2013-02-12 16:27:00,48.2,32.3,29.98,North,10,6.0,-999.0,54,0.00,,,0.00,Wunderground v.1.15,2013-02-12 22:27:00,
2013-02-12 16:32:00,48.1,31.8,29.98,North,4,7.0,-999.0,53,0.00,,,0.00,Wunderground v.1.15,2013-02-12 22:32:00,
2013-02-12 16:37:00,48.1,31.8,29.99,NNE,19,4.0,-999.0,53,0.00,,,0.00,Wunderground v.1.15,2013-02-12 22:37:00,
2013-02-12 16:42:00,48.1,32.2,29.98,West,279,6.0,-999.0,54,0.00,,,0.00,Wunderground v.1.15,2013-02-12 22:42:00,
2013-02-12 16:47:00,48.1,32.2,29.98,NNE,15,6.0,-999.0,54,0.00,,,0.00,Wunderground v.1.15,2013-02-12 22:47:00,
2013-02-12 16:52:00,48.1,32.7,29.99,West,279,6.0,-999.0,55,0.00,,,0.00,Wunderground v.1.15,2013-02-12 22:52:00,
2013-02-12 16:57:00,48.0,32.6,29.97,North,9,6.0,-999.0,55,0.00,,,0.00,Wunderground v.1.15,2013-02-12 22:57:00,
2013-02-12 17:02:00,47.8,31.9,29.98,NNE,22,4.0,-999.0,54,0.00,,,0.00,Wunderground v.1.15,2013-02-12 23:02:00,
2013-02-12 17:07:00,47.7,32.8,29.99,West,279,5.0,-999.0,56,0.00,,,0.00,Wunderground v.1.15,2013-02-12 23:07:00,
2013-02-12 17:12:00,47.5,32.1,29.96,NNE,26,7.0,-999.0,55,0.00,,,0.00,Wunderground v.1.15,2013-02-12 23:12:00,
2013-02-12 17:17:00,47.3,32.4,29.96,West,279,6.0,-999.0,56,0.00,,,0.00,Wunderground v.1.15,2013-02-12 23:17:00,
2013-02-12 17:22:00,47.1,32.2,29.97,NNE,15,7.0,-999.0,56,0.00,,,0.00,Wunderground v.1.15,2013-02-12 23:22:00,
2013-02-12 17:27:00,47.0,32.5,29.98,West,279,8.0,-999.0,57,0.00,,,0.00,Wunderground v.1.15,2013-02-12 23:27:00,
2013-02-12 17:32:00,46.9,32.4,29.98,North,9,6.0,-999.0,57,0.00,,,0.00,Wunderground v.1.15,2013-02-12 23:32:00,
2013-02-12 17:37:00,46.8,31.9,29.99,NNE,26,5.0,-999.0,56,0.00,,,0.00,Wunderground v.1.15,2013-02-12 23:37:00,
2013-02-12 17:42:00,46.7,32.3,29.97,NNE,16,6.0,-999.0,57,0.00,,,0.00,Wunderground v.1.15,2013-02-12 23:42:00,
2013-02-12 17:47:00,46.6,32.2,29.96,NE,35,9.0,-999.0,57,0.00,,,0.00,Wunderground v.1.15,2013-02-12 23:47:00,
2013-02-12 17:52:00,46.4,32.4,29.96,NNE,30,8.0,-999.0,58,0.00,,,0.00,Wunderground v.1.15,2013-02-12 23:52:00,
2013-02-12 17:57:00,46.3,32.3,29.97,West,279,10.0,-999.0,58,0.00,,,0.00,Wunderground v.1.15,2013-02-12 23:57:00,
2013-02-12 18:02:00,46.2,32.2,29.95,NNE,21,9.0,-999.0,58,0.00,,,0.00,Wunderground v.1.15,2013-02-13 00:02:00,
2013-02-12 18:07:00,46.1,32.1,29.95,NNE,26,9.0,-999.0,58,0.00,,,0.00,Wunderground v.1.15,2013-02-13 00:07:00,
2013-02-12 18:12:00,46.1,32.6,29.95,West,279,9.0,-999.0,59,0.00,,,0.00,Wunderground v.1.15,2013-02-13 00:12:00,
2013-02-12 18:17:00,46.0,32.5,29.96,NNE,21,10.0,-999.0,59,0.00,,,0.00,Wunderground v.1.15,2013-02-13 00:17:00,
2013-02-12 18:22:00,45.9,31.9,29.95,NNE,17,8.0,-999.0,58,0.00,,,0.00,Wunderground v.1.15,2013-02-13 00:22:00,
2013-02-12 18:27:00,45.8,32.3,29.95,NNE,24,9.0,-999.0,59,0.00,,,0.00,Wunderground v.1.15,2013-02-13 00:27:00,
2013-02-12 18:32:00,45.8,32.3,29.95,West,279,9.0,-999.0,59,0.00,,,0.00,Wunderground v.1.15,2013-02-13 00:32:00,
2013-02-12 18:37:00,45.7,31.8,29.96,NNE,24,7.0,-999.0,58,0.00,,,0.00,Wunderground v.1.15,2013-02-13 00:37:00,
2013-02-12 18:42:00,45.8,31.9,29.95,NNE,30,9.0,-999.0,58,0.00,,,0.00,Wunderground v.1.15,2013-02-13 00:42:00,
2013-02-12 18:47:00,45.8,31.9,29.95,NE,40,7.0,-999.0,58,0.00,,,0.00,Wunderground v.1.15,2013-02-13 00:47:00,
2013-02-12 18:52:00,45.8,31.9,29.96,NE,34,6.0,-999.0,58,0.00,,,0.00,Wunderground v.1.15,2013-02-13 00:52:00,
2013-02-12 18:57:00,45.8,32.3,29.97,NE,55,6.0,-999.0,59,0.00,,,0.00,Wunderground v.1.15,2013-02-13 00:57:00,
2013-02-12 19:02:00,45.7,31.8,29.96,West,279,8.0,-999.0,58,0.00,,,0.00,Wunderground v.1.15,2013-02-13 01:02:00,
2013-02-12 19:07:00,45.6,32.5,29.95,NE,45,9.0,-999.0,60,0.00,,,0.00,Wunderground v.1.15,2013-02-13 01:07:00,
2013-02-12 19:12:00,45.5,32.0,29.95,NE,40,7.0,-999.0,59,0.00,,,0.00,Wunderground v.1.15,2013-02-13 01:12:00,
2013-02-12 19:17:00,45.5,32.0,29.95,NE,46,9.0,-999.0,59,0.00,,,0.00,Wunderground v.1.15,2013-02-13 01:17:00,
2013-02-12 19:22:00,45.4,31.9,29.96,NE,42,10.0,-999.0,59,0.00,,,0.00,Wunderground v.1.15,2013-02-13 01:22:00,
2013-02-12 19:27:00,45.4,31.9,29.94,NE,39,11.0,-999.0,59,0.00,,,0.00,Wunderground v.1.15,2013-02-13 01:27:00,
2013-02-12 19:32:00,45.3,32.2,29.94,West,279,11.0,-999.0,60,0.00,,,0.00,Wunderground v.1.15,2013-02-13 01:32:00,
2013-02-12 19:37:00,45.2,32.1,29.94,NNE,31,10.0,-999.0,60,0.00,,,0.00,Wunderground v.1.15,2013-02-13 01:37:00,
2013-02-12 19:42:00,45.2,32.1,29.94,NNE,22,10.0,-999.0,60,0.00,,,0.00,Wunderground v.1.15,2013-02-13 01:42:00,
2013-02-12 19:47:00,45.2,32.9,29.93,NNE,20,9.0,-999.0,62,0.00,,,0.00,Wunderground v.1.15,2013-02-13 01:47:00,
2013-02-12 19:52:00,45.1,33.2,29.92,West,279,11.0,-999.0,63,0.00,,,0.00,Wunderground v.1.15,2013-02-13 01:52:00,
2013-02-12 19:57:00,45.0,32.8,29.92,NNE,14,13.0,-999.0,62,0.00,,,0.00,Wunderground v.1.15,2013-02-13 01:57:00,
2013-02-12 20:02:00,44.9,32.3,29.92,North,4,17.0,-999.0,61,0.00,,,0.00,Wunderground v.1.15,2013-02-13 02:02:00,
2013-02-12 20:07:00,45.0,32.3,29.92,ENE,58,11.0,-999.0,61,0.00,,,0.00,Wunderground v.1.15,2013-02-13 02:07:00,
2013-02-12 20:12:00,45.0,33.2,29.92,West,279,11.0,-999.0,63,0.00,,,0.00,Wunderground v.1.15,2013-02-13 02:12:00,
2013-02-12 20:17:00,45.0,33.2,29.91,NE,37,13.0,-999.0,63,0.00,,,0.00,Wunderground v.1.15,2013-02-13 02:17:00,
2013-02-12 20:22:00,44.9,32.7,29.91,ENE,57,9.0,-999.0,62,0.00,,,0.00,Wunderground v.1.15,2013-02-13 02:22:00,
2013-02-12 20:27:00,44.9,32.7,29.93,West,279,12.0,-999.0,62,0.00,,,0.00,Wunderground v.1.15,2013-02-13 02:27:00,
2013-02-12 20:32:00,44.9,32.7,29.92,NE,46,9.0,-999.0,62,0.00,,,0.00,Wunderground v.1.15,2013-02-13 02:32:00,
2013-02-12 20:37:00,44.8,32.6,29.91,NE,48,9.0,-999.0,62,0.00,,,0.00,Wunderground v.1.15,2013-02-13 02:37:00,
2013-02-12 20:42:00,44.7,32.9,29.91,NE,49,9.0,-999.0,63,0.00,,,0.00,Wunderground v.1.15,2013-02-13 02:42:00,
2013-02-12 20:47:00,44.6,32.8,29.91,NE,47,10.0,-999.0,63,0.00,,,0.00,Wunderground v.1.15,2013-02-13 02:47:00,
2013-02-12 20:52:00,44.5,32.7,29.91,West,279,12.0,-999.0,63,0.00,,,0.00,Wunderground v.1.15,2013-02-13 02:52:00,
2013-02-12 20:57:00,44.3,32.5,29.92,NE,55,14.0,-999.0,63,0.00,,,0.00,Wunderground v.1.15,2013-02-13 02:57:00,
2013-02-12 21:02:00,44.3,32.9,29.89,NE,41,14.0,-999.0,64,0.00,,,0.00,Wunderground v.1.15,2013-02-13 03:02:00,
2013-02-12 21:07:00,44.2,32.8,29.89,West,279,14.0,-999.0,64,0.00,,,0.00,Wunderground v.1.15,2013-02-13 03:07:00,
2013-02-12 21:12:00,44.3,32.5,29.89,West,279,12.0,-999.0,63,0.00,,,0.00,Wunderground v.1.15,2013-02-13 03:12:00,
2013-02-12 21:17:00,44.3,32.9,29.91,NNE,26,14.0,-999.0,64,0.00,,,0.00,Wunderground v.1.15,2013-02-13 03:17:00,
2013-02-12 21:22:00,44.3,32.9,29.89,NNE,28,11.0,-999.0,64,0.00,,,0.00,Wunderground v.1.15,2013-02-13 03:22:00,
2013-02-12 21:27:00,44.3,33.3,29.89,NNE,27,14.0,-999.0,65,0.00,,,0.00,Wunderground v.1.15,2013-02-13 03:27:00,
2013-02-12 21:32:00,44.2,33.2,29.89,NNE,28,12.0,-999.0,65,0.00,,,0.00,Wunderground v.1.15,2013-02-13 03:32:00,
2013-02-12 21:37:00,44.1,33.1,29.88,North,9,14.0,-999.0,65,0.00,,,0.00,Wunderground v.1.15,2013-02-13 03:37:00,
2013-02-12 21:42:00,44.1,33.5,29.89,North,7,12.0,-999.0,66,0.00,,,0.00,Wunderground v.1.15,2013-02-13 03:42:00,
2013-02-12 21:47:00,44.0,33.4,29.89,NNE,21,15.0,-999.0,66,0.00,,,0.00,Wunderground v.1.15,2013-02-13 03:47:00,
2013-02-12 21:52:00,44.0,33.4,29.88,NNW,348,7.0,-999.0,66,0.00,,,0.00,Wunderground v.1.15,2013-02-13 03:52:00,
2013-02-12 21:57:00,43.9,33.6,29.88,NNE,14,10.0,-999.0,67,0.00,,,0.00,Wunderground v.1.15,2013-02-13 03:57:00,
2013-02-12 22:02:00,43.7,33.8,29.88,North,5,10.0,-999.0,68,0.00,,,0.00,Wunderground v.1.15,2013-02-13 04:02:00,
2013-02-12 22:06:00,43.6,33.7,29.89,NNE,20,9.0,-999.0,68,0.00,,,0.00,Wunderground v.1.15,2013-02-13 04:06:00,
2013-02-12 22:11:00,43.6,33.7,29.88,West,279,10.0,-999.0,68,0.00,,,0.00,Wunderground v.1.15,2013-02-13 04:11:00,
2013-02-12 22:16:00,43.5,33.6,29.87,West,279,10.0,-999.0,68,0.00,,,0.00,Wunderground v.1.15,2013-02-13 04:16:00,
2013-02-12 22:21:00,43.4,33.5,29.88,NNE,17,9.0,-999.0,68,0.00,,,0.00,Wunderground v.1.15,2013-02-13 04:21:00,
2013-02-12 22:26:00,43.4,33.5,29.89,NNE,26,9.0,-999.0,68,0.00,,,0.00,Wunderground v.1.15,2013-02-13 04:26:00,
2013-02-12 22:31:00,43.5,33.6,29.88,NNE,20,10.0,-999.0,68,0.00,,,0.00,Wunderground v.1.15,2013-02-13 04:31:00,
2013-02-12 22:36:00,43.4,33.5,29.88,NNE,32,7.0,-999.0,68,0.00,,,0.00,Wunderground v.1.15,2013-02-13 04:36:00,
2013-02-12 22:41:00,43.4,33.5,29.88,West,279,11.0,-999.0,68,0.00,,,0.00,Wunderground v.1.15,2013-02-13 04:41:00,
2013-02-12 22:46:00,43.4,33.5,29.88,NE,47,9.0,-999.0,68,0.00,,,0.00,Wunderground v.1.15,2013-02-13 04:46:00,
2013-02-12 22:51:00,43.4,33.5,29.88,NE,45,8.0,-999.0,68,0.00,,,0.00,Wunderground v.1.15,2013-02-13 04:51:00,
2013-02-12 22:56:00,43.4,33.5,29.87,NE,53,10.0,-999.0,68,0.00,,,0.00,Wunderground v.1.15,2013-02-13 04:56:00,
2013-02-12 23:00:00,43.3,33.8,29.87,West,279,6.0,-999.0,69,0.00,,,0.00,Wunderground v.1.15,2013-02-13 05:00:00,
2013-02-12 23:05:00,43.3,34.5,29.88,NNE,30,9.0,-999.0,71,0.00,,,0.00,Wunderground v.1.15,2013-02-13 05:05:00,
2013-02-12 23:10:00,43.1,34.7,29.87,NE,41,8.0,-999.0,72,0.00,,,0.00,Wunderground v.1.15,2013-02-13 05:10:00,
2013-02-12 23:15:00,43.0,34.6,29.87,West,279,8.0,-999.0,72,0.00,,,0.00,Wunderground v.1.15,2013-02-13 05:15:00,
2013-02-12 23:20:00,42.9,34.5,29.87,NE,54,6.0,-999.0,72,0.00,,,0.00,Wunderground v.1.15,2013-02-13 05:20:00,
2013-02-12 23:25:00,42.8,35.1,29.88,NE,47,5.0,-999.0,74,0.00,,,0.00,Wunderground v.1.15,2013-02-13 05:25:00,
2013-02-12 23:30:00,42.6,35.6,29.88,NE,36,8.0,-999.0,76,0.00,,,0.00,Wunderground v.1.15,2013-02-13 05:30:00,
2013-02-12 23:35:00,42.5,36.4,29.87,NNE,28,7.0,-999.0,79,0.00,,,0.00,Wunderground v.1.15,2013-02-13 05:35:00,
2013-02-12 23:40:00,42.2,36.2,29.87,NNE,28,7.0,-999.0,79,0.00,,,0.01,Wunderground v.1.15,2013-02-13 05:40:00,
2013-02-12 23:45:00,42.0,36.9,29.86,NNE,23,10.0,-999.0,82,0.00,,,0.01,Wunderground v.1.15,2013-02-13 05:45:00,
2013-02-12 23:50:00,41.7,36.6,29.86,NNE,15,9.0,-999.0,82,0.00,,,0.01,Wunderground v.1.15,2013-02-13 05:50:00,
2013-02-12 23:55:00,41.4,36.9,29.86,West,279,8.0,-999.0,84,0.00,,,0.01,Wunderground v.1.15,2013-02-13 05:55:00,